カタログに戻る

CZ-6A DEB

運用中PO
NORAD 54266·DEBRIS·🇨🇳 China

打ち上げ Nov 11, 2022 から Taiyuan Satellite Launch Center

Loading…

次のパス (今後24時間)

TLE

最新Source: Space-Track

元期: Sep 14, 2026, 21:21 UTC

1 54266U 22151H   26257.88994573 -.00000362  00000-0 -41298-3 0  9999
2 54266  98.9830 117.2068 0409191 199.4604 159.0502 13.33368320186867

AllMySatでCZ-6A DEBをリアルタイム追跡

Download on the App Store